Showing default

ORBCOMM FM 104, 40090

Orbit data source: Space-Track

ORBCOMM FM 104, 40090 is a payload satellite owned by Orbcomm (US) in LEO that was launched on Mon, 14 Jul 2014 UTC via an FALCON 9 launch vehicle from the Air Force Eastern Test Range (AFETR). Payload-class satellites include a variety of spacecraft equipped with specific instruments for various scientific and technological missions. These include communications satellites like Starlink; space stations such as the ISS; scientific satellites like the Hubble; Earth observation satellites from companies like Planet Labs, Umbra, and HawkEye 360; GPS; miniature CubeSats for education and research; and military/defense satellites.

Loading next visibility...
Identifier
40090, 2014-040E
Orbit
LEO
Country
Flag of USUS / ORB
Related business
Manufacturer
SNC Louisville
Mission
Non-operational Commercial Communications
Bus & Motor
SN-100A, Unknown motor
Mass
172 kg wet, 158 kg dry
Launch date (UTC)
2014-07-14 (11 years ago)
Launch vehicle
FALCON 9
Launch site
Air Force Eastern Test Range (AFETR)
Object type
Payload
Rocket body
Debris
Shape & HBR
Box + 1 Pan + 1 Ant, 10.3 m
Radar Cross Section
2.222 m², Medium (>0.1 m² and < 1m²)

Expand to show TLE details & history
Last TLE update: 22 hours ago

TLE from 22 hours ago
0 ORBCOMM FM 104
1 40090U 14040E   25346.24653638  .00001181  00000-0  29727-3 0  9990
2 40090  47.0058 291.8011 0017029 298.4273  61.4896 14.57007052606585
Epoch: 2025-12-12T05:55Z
TLE epoch observation values (Epoch: 2025-12-12T05:55:00.743Z)
Latitude
Longitude
121.8571°
Altitude
697.331 km
Speed
7.512 km/s
True Right ascension
19h 27m 12s
True Declination
0° 00' 00"
Sunlit
Object was in daylight at epoch
Visualization orbit readout
Latitude
Unknown
Longitude
Unknown
Altitude
Unknown
Speed
Unknown
Apparent Right ascension
Unknown
Apparent Declination
Unknown
Sunlit
N/A
Visualization observer readout
Local Sidereal Time
02:28:46
Azimuth
Unknown
Elevation
Unknown
Doppler factor
Unknown
Orbital elements
Apogee altitude
716.148 km
Perigee altitude
692.027 km
Semi-major axis
7,082.225 km
Eccentricity
0.0017
Inclination
47.0058°
RAAN
291.8011°
Arg. of periapsis
298.4273°
True anomaly
61.66125°
Mean anomaly
61.4896°
Eccentric anomaly
61.57541°
Mean motion
3.64157 °/min
Orbital period
98.86 mins
BSTAR
0.00029727
Loading maneuver chart data...
Computing Atmospheric mass density...
Loading historical data...
Loading historical data...
Loading historical data...
Loading historical data...
Loading historical data...
Loading historical data...
Loading historical data...

Documentation

Showing up to 5 results
|